Tracking 30306 objects as of 23-Apr-2025
HD Live streaming from Space Station
objects crossing your sky now

SL-14 R/B

Track SL-14 R/B now!
10-day predictions


NORAD ID: 15100
Int'l Code: 1984-072B
Perigee: 946.9 km
Apogee: 963.1 km
Inclination: 82.5 °
Period: 104.0 minutes
Semi major axis: 7325 km
RCS: 5.0553 m2 (large)
Launch date: July 5, 1984
Source: Commonwealth of Independent States (former USSR) (CIS)
Launch site: PLESETSK MISSILE AND SPACE COMPLEX (PKMTR)

Note: This is a ROCKET BODY
Your satellite tracking list
Your tracking list is empty




NASA's NSSDC Master Catalog

Two Line Element Set (TLE):
1 15100U 84072B   25112.88072090  .00000038  00000-0  20803-4 0  9991
2 15100  82.5341  19.8256 0011067 214.3243 145.7204 13.84535697 61312
Source of the keplerian elements: AFSPC